AF1E Weather Reports


time (UTC)temp
C
wind
direction
speed
KPH
gust
KPH
rain 1hr
cm
rain 24hr
cm
rain mn
cm
humidity
%
barometer
mb
20260508145516 17 0.0 1.6 0.00 0.00 0.00 46 1016.4
20260508144516 17 0.0 1.6 0.00 0.00 0.00 49 1016.5
20260508143536 16 0.0 3.2 0.00 0.00 0.00 51 1016.5
20260508142516 16 0.0 3.2 0.00 0.00 0.00 51 1016.5
20260508141516 15 0.0 4.8 0.00 0.00 0.00 53 1016.5
20260508140516 15 0 1.6 4.8 0.00 0.03 0.00 56 1016.4
20260508135516 14 113 1.6 4.8 0.00 0.03 0.00 57 1016.4
20260508134516 14 0.0 3.2 0.00 0.03 0.00 62 1016.4
20260508133516 13 0.0 1.6 0.00 0.03 0.00 59 1016.4
20260508132515 13 0.0 4.8 0.00 0.03 0.00 63 1016.4
20260508131516 13 315 1.6 3.2 0.00 0.05 0.00 67 1016.3
20260508130516 12 338 1.6 3.2 0.00 0.05 0.00 68 1016.3
20260508125515 12 0.0 1.6 0.00 0.08 0.00 75 1016.3
20260508124516 12 0.0 1.6 0.00 0.08 0.00 76 1016.2
20260508123516 11 0.0 3.2 0.00 0.10 0.00 80 1016.2
20260508122516 10 338 1.6 4.8 0.00 0.18 0.00 86 1016.1
20260508121516 10 0.0 0.0 0.00 0.28 0.00 93 1016.0
20260508120536 8 0 1.6 3.2 0.00 0.41 0.00 96 1015.8
20260508115516 8 0.0 0.0 0.00 0.48 0.00 96 1015.7
20260508114515 7 0.0 0.0 0.00 0.53 0.00 95 1015.6
20260508113536 6 0.0 0.0 0.00 0.58 0.00 95 1015.5
20260508112516 6 0.0 0.0 0.00 0.58 0.00 95 1015.4
20260508111536 6 0.0 0.0 0.00 0.58 0.00 95 1015.2
20260508110515 5 0.0 0.0 0.00 0.58 0.00 94 1015.1
20260508105515 5 0.0 0.0 0.00 0.58 0.00 94 1014.9
20260508104516 5 0.0 0.0 0.00 0.58 0.00 94 1014.7
20260508103516 5 0.0 0.0 0.00 0.58 0.00 94 1014.4
20260508102516 5 0.0 0.0 0.00 0.58 0.00 94 1014.2
20260508101515 5 0.0 0.0 0.00 0.58 0.00 94 1014.1
20260508100535 5 0.0 0.0 0.00 0.58 0.00 94 1014.0
20260508095515 6 0.0 0.0 0.00 0.58 0.00 94 1014.0
20260508094537 6 0.0 0.0 0.00 0.58 0.00 94 1013.9
20260508093517 6 0.0 0.0 0.00 0.58 0.00 94 1013.8
20260508092538 6 0.0 0.0 0.00 0.58 0.00 94 1013.8
20260508091517 6 0.0 0.0 0.00 0.58 0.00 93 1013.8
20260508090517 6 0.0 0.0 0.00 0.58 0.00 93 1013.7
20260508085517 6 0.0 0.0 0.00 0.58 0.00 93 1013.5
20260508084517 6 0.0 0.0 0.00 0.61 0.00 93 1013.6
20260508083517 7 0.0 0.0 0.00 0.61 0.00 94 1013.6
20260508082517 7 0.0 0.0 0.00 0.61 0.00 93 1013.5
20260508081517 7 0.0 0.0 0.00 0.61 0.00 93 1013.5
20260508080517 7 0.0 0.0 0.00 0.61 0.00 93 1013.4
20260508075517 7 0.0 0.0 0.00 0.61 0.00 93 1013.3
20260508074537 7 0.0 1.6 0.00 0.61 0.00 93 1013.1
20260508073517 7 0.0 0.0 0.00 0.61 0.00 93 1013.1
20260508072517 7 0.0 0.0 0.00 0.61 0.00 93 1013.2
20260508071537 7 0.0 0.0 0.00 0.61 0.00 93 1013.1
20260508070517 7 0.0 0.0 0.00 0.61 0.00 93 1013.0
20260508065517 7 0.0 0.0 0.00 0.61 0.00 92 1012.9
20260508064517 8 0.0 0.0 0.00 0.61 0.00 92 1012.9
20260508063517 8 0.0 0.0 0.00 0.61 0.00 92 1012.9
20260508062517 8 0.0 0.0 0.00 0.64 0.00 92 1012.8
20260508061517 8 0.0 0.0 0.00 0.64 0.00 92 1012.8
20260508060517 8 0.0 0.0 0.00 0.64 0.00 92 1012.8
20260508055517 8 0.0 0.0 0.00 0.64 0.00 92 1012.8
20260508054517 8 0.0 0.0 0.00 0.64 0.00 91 1012.9
20260508053537 8 0.0 0.0 0.00 0.64 0.00 91 1012.7
20260508052517 8 0.0 0.0 0.00 0.66 0.00 90 1012.7
20260508051517 9 0.0 0.0 0.00 0.66 0.00 89 1012.6
20260508050517 9 0.0 0.0 0.00 0.69 0.00 89 1012.5
20260508045517 9 0.0 0.0 0.00 0.69 0.00 87 1012.4
20260508044517 10 0.0 0.0 0.00 0.71 0.00 86 1012.4
20260508043517 10 0.0 0.0 0.00 0.71 0.00 86 1012.3
20260508042517 10 0.0 0.0 0.00 0.71 0.00 86 1012.4
20260508041517 10 0.0 0.0 0.00 0.71 0.00 85 1012.3
20260508040517 10 0.0 0.0 0.00 0.71 0.00 85 1012.2
20260508035517 10 0.0 0.0 0.00 0.71 0.71 84 1012.3
20260508034517 10 0.0 0.0 0.00 0.71 0.71 84 1012.4
20260508033517 10 0.0 0.0 0.00 0.71 0.71 83 1012.1
20260508032517 11 0.0 1.6 0.00 0.71 0.71 83 1012.2
20260508031517 11 0.0 0.0 0.00 0.71 0.71 79 1012.1
20260508030517 11 0.0 0.0 0.00 0.71 0.71 80 1012.2
20260508025518 11 0.0 0.0 0.00 0.71 0.71 79 1012.0
20260508024517 11 0.0 0.0 0.00 0.76 0.71 78 1011.8
20260508023517 11 0.0 0.0 0.00 0.79 0.71 78 1011.7
20260508022517 11 0.0 0.0 0.00 0.81 0.71 77 1011.7
20260508021517 12 0.0 0.0 0.00 0.81 0.71 75 1011.6
20260508020517 12 0.0 0.0 0.00 0.84 0.71 74 1011.4
20260508015517 12 0.0 0.0 0.00 0.84 0.71 73 1011.3
20260508014517 13 0.0 0.0 0.00 0.86 0.71 72 1011.1
20260508013537 13 0.0 0.0 0.00 0.91 0.71 70 1010.8
20260508012557 14 0.0 0.0 0.00 0.94 0.71 67 1010.7
20260508011517 14 338 1.6 4.8 0.00 0.94 0.71 66 1010.5
20260508010517 15 0.0 1.6 0.00 0.94 0.71 66 1010.3
20260508005558 15 0 1.6 6.4 0.00 0.97 0.71 66 1010.1
20260508004517 15 23 1.6 4.8 0.00 0.97 0.71 68 1010.0
20260508003537 15 338 1.6 8.0 0.00 1.02 0.71 66 1009.8
20260508002517 16 0.0 3.2 0.00 1.07 0.71 66 1009.7
20260508001517 16 113 1.6 8.0 0.00 1.09 0.71 68 1009.6
20260508000516 16 0 1.6 6.4 0.00 1.12 0.71 81 1009.5
20260507235517 16 0 1.6 6.4 0.00 1.12 0.71 86 1009.6
20260507234517 16 0 1.6 4.8 0.00 1.12 0.71 86 1009.5
20260507233516 16 0.0 1.6 0.00 1.12 0.71 87 1009.3
20260507232517 16 0.0 1.6 0.00 1.12 0.71 86 1009.1
20260507231537 16 0.0 1.6 0.00 1.14 0.71 85 1008.9
20260507230517 16 0.0 4.8 0.00 1.17 0.71 85 1008.8
20260507225517 17 0.0 1.6 0.00 1.17 0.71 84 1008.7
20260507224536 17 0.0 4.8 0.00 1.19 0.71 83 1008.4
20260507223516 17 0.0 1.6 0.00 1.19 0.71 84 1008.1
20260507222517 16 45 1.6 9.7 0.00 1.19 0.71 83 1007.9
20260507221517 17 23 1.6 8.0 0.00 1.19 0.71 84 1007.9
20260507220516 17 23 1.6 4.8 0.00 1.19 0.71 83 1007.8
20260507215537 17 45 1.6 6.4 0.00 1.19 0.71 83 1007.7
20260507214516 17 45 1.6 8.0 0.00 1.19 0.71 83 1007.6
20260507213516 17 45 1.6 9.7 0.00 1.19 0.71 84 1007.3
20260507212517 17 45 1.6 6.4 0.00 1.19 0.71 83 1007.1
20260507211517 17 45 3.2 12.9 0.00 1.19 0.71 84 1007.1
20260507210516 17 45 1.6 6.4 0.00 1.19 0.71 86 1007.2
20260507205516 17 45 3.2 9.7 0.00 1.19 0.71 86 1007.3
20260507204516 17 45 3.2 8.0 0.00 1.19 0.71 85 1006.6
20260507203516 17 45 1.6 4.8 0.00 1.19 0.71 83 1006.6
20260507202516 18 45 1.6 4.8 0.00 1.19 0.71 83 1006.8
20260507201516 18 45 3.2 11.3 0.00 1.19 0.71 81 1006.4
20260507200516 20 45 3.2 12.9 0.00 1.19 0.71 75 1006.3
20260507195516 24 0.0 1.6 0.00 1.19 0.71 71 1006.1
20260507194516 24 248 3.2 4.8 0.00 1.19 0.71 69 1006.0
20260507193536 25 113 4.8 9.7 0.00 1.19 0.71 71 1005.5
20260507192516 25 135 3.2 8.0 0.00 1.19 0.71 70 1005.6
20260507191537 25 135 4.8 9.7 0.00 1.19 0.71 68 1005.8
20260507190516 24 0.0 3.2 0.00 1.19 0.71 68 1005.9
20260507185516 23 0.0 1.6 0.00 1.19 0.71 70 1006.1
20260507184516 24 113 3.2 6.4 0.00 1.19 0.71 68 1006.0
20260507183516 25 248 1.6 8.0 0.00 1.19 0.71 69 1006.1
20260507182516 25 135 3.2 8.0 0.00 1.19 0.71 64 1006.3
20260507181516 25 113 1.6 4.8 0.00 1.19 0.71 69 1006.3
20260507180516 25 225 1.6 4.8 0.00 1.19 0.71 67 1006.5
20260507175516 24 248 1.6 3.2 0.00 1.19 0.71 70 1006.4
20260507174516 23 248 1.6 3.2 0.00 1.19 0.71 74 1006.5
20260507173516 23 135 1.6 4.8 0.00 1.19 0.71 76 1006.6
20260507172516 22 248 1.6 4.8 0.00 1.19 0.71 76 1006.7
20260507171516 22 248 1.6 4.8 0.00 1.19 0.71 79 1006.9
20260507170516 22 135 1.6 8.0 0.00 1.19 0.71 76 1007.1
20260507165516 22 0.0 3.2 0.00 1.19 0.71 85 1007.3
20260507164556 21 0.0 3.2 0.00 1.24 0.71 84 1007.6
20260507163516 21 338 1.6 6.4 0.00 1.27 0.71 84 1007.5
20260507162516 21 0.0 3.2 0.00 1.30 0.71 84 1007.6
20260507161516 21 0.0 3.2 0.00 1.30 0.71 84 1007.5
20260507160516 21 0.0 1.6 0.00 1.30 0.71 89 1007.7
20260507155516 20 0.0 3.2 0.00 1.30 0.71 89 1007.3
20260507154516 20 0.0 4.8 0.00 1.30 0.71 90 1007.4
20260507153516 20 0.0 1.6 0.00 1.30 0.71 90 1007.1
20260507152536 19 113 1.6 6.4 0.00 1.30 0.71 92 1007.4
20260507151516 18 0.0 1.6 0.00 1.30 0.71 93 1007.5
20260507150516 18 0.0 0.0 0.03 1.30 0.71 94 1007.9